Year,Month,Day,Hour,Minute,Value (Times are PST for temperature in C)
2016,07,20,00,00,16.90
2016,07,20,00,01,16.90
2016,07,20,00,02,16.80
2016,07,20,00,03,16.80
2016,07,20,00,04,16.80
2016,07,20,00,05,16.70
2016,07,20,00,06,16.70
2016,07,20,00,07,16.60
2016,07,20,00,08,16.60
2016,07,20,00,09,16.60
2016,07,20,00,10,16.60
2016,07,20,00,11,16.50
2016,07,20,00,12,16.50
2016,07,20,00,13,16.50
2016,07,20,00,14,16.40
2016,07,20,00,15,16.40
2016,07,20,00,16,16.40
2016,07,20,00,17,16.40
2016,07,20,00,18,16.40
2016,07,20,00,19,16.40
2016,07,20,00,20,16.40
2016,07,20,00,21,16.40
2016,07,20,00,22,16.40
2016,07,20,00,23,16.40
2016,07,20,00,24,16.50
2016,07,20,00,25,16.50
2016,07,20,00,26,16.50
2016,07,20,00,27,16.60
2016,07,20,00,28,16.60
2016,07,20,00,29,16.60
2016,07,20,00,30,16.60
2016,07,20,00,31,16.60
2016,07,20,00,32,16.60
2016,07,20,00,33,16.60
2016,07,20,00,34,16.60
2016,07,20,00,35,16.60
2016,07,20,00,36,16.60
2016,07,20,00,37,16.60
2016,07,20,00,38,16.60
2016,07,20,00,39,16.60
2016,07,20,00,40,16.60
2016,07,20,00,41,16.50
2016,07,20,00,42,16.50
2016,07,20,00,43,16.50
2016,07,20,00,44,16.50
2016,07,20,00,45,16.40
2016,07,20,00,46,16.40
2016,07,20,00,47,16.40
2016,07,20,00,48,16.40
2016,07,20,00,49,16.40
2016,07,20,00,50,16.30
2016,07,20,00,51,16.30
2016,07,20,00,52,16.30
2016,07,20,00,53,16.30
2016,07,20,00,54,16.30
2016,07,20,00,55,16.30
2016,07,20,00,56,16.30
2016,07,20,00,57,16.30
2016,07,20,00,58,16.20
2016,07,20,00,59,16.20
2016,07,20,01,00,16.20
2016,07,20,01,01,16.20
2016,07,20,01,02,16.20
2016,07,20,01,03,16.20
2016,07,20,01,04,16.20
2016,07,20,01,05,16.20
2016,07,20,01,06,16.20
2016,07,20,01,07,16.20
2016,07,20,01,08,16.20
2016,07,20,01,09,16.20
2016,07,20,01,10,16.20
2016,07,20,01,11,16.20
2016,07,20,01,12,16.20
2016,07,20,01,13,16.20
2016,07,20,01,14,16.20
2016,07,20,01,15,16.20
2016,07,20,01,16,16.20
2016,07,20,01,17,16.20
2016,07,20,01,18,16.20
2016,07,20,01,19,16.10
2016,07,20,01,20,16.10
2016,07,20,01,21,16.10
2016,07,20,01,22,16.10
2016,07,20,01,23,16.10
2016,07,20,01,24,16.10
2016,07,20,01,25,16.10
2016,07,20,01,26,16.10
2016,07,20,01,27,16.00
2016,07,20,01,28,16.00
2016,07,20,01,29,16.00
2016,07,20,01,30,16.00
2016,07,20,01,31,16.00
2016,07,20,01,32,16.00
2016,07,20,01,33,16.00
2016,07,20,01,34,16.00
2016,07,20,01,35,16.00
2016,07,20,01,36,16.00
2016,07,20,01,37,16.00
2016,07,20,01,38,16.00
2016,07,20,01,39,16.00
2016,07,20,01,40,16.00
2016,07,20,01,41,16.00
2016,07,20,01,42,16.00
2016,07,20,01,43,16.00
2016,07,20,01,44,16.00
2016,07,20,01,45,16.00
2016,07,20,01,46,16.00
2016,07,20,01,47,16.00
2016,07,20,01,48,16.00
2016,07,20,01,49,16.00
2016,07,20,01,50,16.00
2016,07,20,01,51,16.00
2016,07,20,01,52,16.00
2016,07,20,01,53,16.00
2016,07,20,01,54,16.00
2016,07,20,01,55,16.00
2016,07,20,01,56,16.00
2016,07,20,01,57,15.90
2016,07,20,01,58,16.00
2016,07,20,01,59,15.90
2016,07,20,02,00,15.90
2016,07,20,02,01,15.90
2016,07,20,02,02,15.90
2016,07,20,02,03,15.90
2016,07,20,02,04,15.90
2016,07,20,02,05,15.90
2016,07,20,02,06,15.90
2016,07,20,02,07,15.90
2016,07,20,02,08,15.90
2016,07,20,02,09,15.90
2016,07,20,02,10,15.90
2016,07,20,02,11,15.90
2016,07,20,02,12,15.90
2016,07,20,02,13,15.80
2016,07,20,02,14,15.80
2016,07,20,02,15,15.80
2016,07,20,02,16,15.80
2016,07,20,02,17,15.80
2016,07,20,02,18,15.80
2016,07,20,02,19,15.80
2016,07,20,02,20,15.80
2016,07,20,02,21,15.80
2016,07,20,02,22,15.80
2016,07,20,02,23,15.80
2016,07,20,02,24,15.80
2016,07,20,02,25,15.80
2016,07,20,02,26,15.80
2016,07,20,02,27,15.80
2016,07,20,02,28,15.80
2016,07,20,02,29,15.80
2016,07,20,02,30,15.80
2016,07,20,02,31,15.80
2016,07,20,02,32,15.80
2016,07,20,02,33,15.80
2016,07,20,02,34,15.80
2016,07,20,02,35,15.80
2016,07,20,02,36,15.80
2016,07,20,02,37,15.80
2016,07,20,02,38,15.80
2016,07,20,02,39,15.70
2016,07,20,02,40,15.70
2016,07,20,02,41,15.70
2016,07,20,02,42,15.70
2016,07,20,02,43,15.70
2016,07,20,02,44,15.70
2016,07,20,02,45,15.70
2016,07,20,02,46,15.70
2016,07,20,02,47,15.70
2016,07,20,02,48,15.70
2016,07,20,02,49,15.70
2016,07,20,02,50,15.70
2016,07,20,02,51,15.70
2016,07,20,02,52,15.70
2016,07,20,02,53,15.70
2016,07,20,02,54,15.70
2016,07,20,02,55,15.70
2016,07,20,02,56,15.70
2016,07,20,02,57,15.70
2016,07,20,02,58,15.70
2016,07,20,02,59,15.70
2016,07,20,03,00,15.70
2016,07,20,03,01,15.70
2016,07,20,03,02,15.70
2016,07,20,03,03,15.70
2016,07,20,03,04,15.70
2016,07,20,03,05,15.70
2016,07,20,03,06,15.70
2016,07,20,03,07,15.70
2016,07,20,03,08,15.70
2016,07,20,03,09,15.70
2016,07,20,03,10,15.60
2016,07,20,03,11,15.70
2016,07,20,03,12,15.70
2016,07,20,03,13,15.70
2016,07,20,03,14,15.70
2016,07,20,03,15,15.70
2016,07,20,03,16,15.60
2016,07,20,03,17,15.60
2016,07,20,03,18,15.60
2016,07,20,03,19,15.60
2016,07,20,03,20,15.60
2016,07,20,03,21,15.60
2016,07,20,03,22,15.60
2016,07,20,03,23,15.60
2016,07,20,03,24,15.60
2016,07,20,03,25,15.60
2016,07,20,03,26,15.60
2016,07,20,03,27,15.60
2016,07,20,03,28,15.60
2016,07,20,03,29,15.60
2016,07,20,03,30,15.60
2016,07,20,03,31,15.60
2016,07,20,03,32,15.60
2016,07,20,03,33,15.60
2016,07,20,03,34,15.60
2016,07,20,03,35,15.60
2016,07,20,03,36,15.60
2016,07,20,03,37,15.70
2016,07,20,03,38,15.70
2016,07,20,03,39,15.60
2016,07,20,03,40,15.70
2016,07,20,03,41,15.60
2016,07,20,03,42,15.60
2016,07,20,03,43,15.60
2016,07,20,03,44,15.60
2016,07,20,03,45,15.60
2016,07,20,03,46,15.60
2016,07,20,03,47,15.60
2016,07,20,03,48,15.60
2016,07,20,03,49,15.60
2016,07,20,03,50,15.60
2016,07,20,03,51,15.60
2016,07,20,03,52,15.50
2016,07,20,03,53,15.50
2016,07,20,03,54,15.50
2016,07,20,03,55,15.50
2016,07,20,03,56,15.50
2016,07,20,03,57,15.50
2016,07,20,03,58,15.40
2016,07,20,03,59,15.40
2016,07,20,04,00,15.40
2016,07,20,04,01,15.40
2016,07,20,04,02,15.40
2016,07,20,04,03,15.40
2016,07,20,04,04,15.40
2016,07,20,04,05,15.40
2016,07,20,04,06,15.40
2016,07,20,04,07,15.40
2016,07,20,04,08,15.40
2016,07,20,04,09,15.40
2016,07,20,04,10,15.40
2016,07,20,04,11,15.40
2016,07,20,04,12,15.40
2016,07,20,04,13,15.40
2016,07,20,04,14,15.40
2016,07,20,04,15,15.40
2016,07,20,04,16,15.40
2016,07,20,04,17,15.40
2016,07,20,04,18,15.30
2016,07,20,04,19,15.30
2016,07,20,04,20,15.30
2016,07,20,04,21,15.30
2016,07,20,04,22,15.30
2016,07,20,04,23,15.30
2016,07,20,04,24,15.30
2016,07,20,04,25,15.30
2016,07,20,04,26,15.30
2016,07,20,04,27,15.30
2016,07,20,04,28,15.30
2016,07,20,04,29,15.30
2016,07,20,04,30,15.30
2016,07,20,04,31,15.30
2016,07,20,04,32,15.30
2016,07,20,04,33,15.30
2016,07,20,04,34,15.30
2016,07,20,04,35,15.30
2016,07,20,04,36,15.30
2016,07,20,04,37,15.30
2016,07,20,04,38,15.30
2016,07,20,04,39,15.30
2016,07,20,04,40,15.30
2016,07,20,04,41,15.30
2016,07,20,04,42,15.30
2016,07,20,04,43,15.30
2016,07,20,04,44,15.20
2016,07,20,04,45,15.20
2016,07,20,04,46,15.20
2016,07,20,04,47,15.20
2016,07,20,04,48,15.20
2016,07,20,04,49,15.20
2016,07,20,04,50,15.20
2016,07,20,04,51,15.20
2016,07,20,04,52,15.20
2016,07,20,04,53,15.20
2016,07,20,04,54,15.20
2016,07,20,04,55,15.20
2016,07,20,04,56,15.20
2016,07,20,04,57,15.20
2016,07,20,04,58,15.20
2016,07,20,04,59,15.20
2016,07,20,05,00,15.20
2016,07,20,05,01,15.20
2016,07,20,05,02,15.10
2016,07,20,05,03,15.10
2016,07,20,05,04,15.10
2016,07,20,05,05,15.10
2016,07,20,05,06,15.10
2016,07,20,05,07,15.10
2016,07,20,05,08,15.10
2016,07,20,05,09,15.10
2016,07,20,05,10,15.10
2016,07,20,05,11,15.10
2016,07,20,05,12,15.10
2016,07,20,05,13,15.10
2016,07,20,05,14,15.10
2016,07,20,05,15,15.10
2016,07,20,05,16,15.10
2016,07,20,05,17,15.10
2016,07,20,05,18,15.10
2016,07,20,05,19,15.10
2016,07,20,05,20,15.20
2016,07,20,05,21,15.20
2016,07,20,05,22,15.20
2016,07,20,05,23,15.20
2016,07,20,05,24,15.20
2016,07,20,05,25,15.10
2016,07,20,05,26,15.10
2016,07,20,05,27,15.10
2016,07,20,05,28,15.10
2016,07,20,05,29,15.10
2016,07,20,05,30,15.10
2016,07,20,05,31,15.10
2016,07,20,05,32,15.10
2016,07,20,05,33,15.10
2016,07,20,05,34,15.10
2016,07,20,05,35,15.10
2016,07,20,05,36,15.00
2016,07,20,05,37,15.00
2016,07,20,05,38,15.00
2016,07,20,05,39,15.00
2016,07,20,05,40,15.00
2016,07,20,05,41,15.00
2016,07,20,05,42,15.00
2016,07,20,05,43,14.90
2016,07,20,05,44,14.90
2016,07,20,05,45,14.90
2016,07,20,05,46,14.90
2016,07,20,05,47,14.90
2016,07,20,05,48,14.90
2016,07,20,05,49,14.90
2016,07,20,05,50,14.90
2016,07,20,05,51,14.90
2016,07,20,05,52,14.90
2016,07,20,05,53,14.90
2016,07,20,05,54,14.90
2016,07,20,05,55,14.90
2016,07,20,05,56,14.90
2016,07,20,05,57,14.90
2016,07,20,05,58,14.90
2016,07,20,05,59,14.90
2016,07,20,06,00,14.90
2016,07,20,06,01,14.90
2016,07,20,06,02,14.90
2016,07,20,06,03,14.90
2016,07,20,06,04,14.80
2016,07,20,06,05,14.90
2016,07,20,06,06,14.80
2016,07,20,06,07,14.80
2016,07,20,06,08,14.80
2016,07,20,06,09,14.80
2016,07,20,06,10,14.80
2016,07,20,06,11,14.80
2016,07,20,06,12,14.80
2016,07,20,06,13,14.80
2016,07,20,06,14,14.80
2016,07,20,06,15,14.90
2016,07,20,06,16,14.90
2016,07,20,06,17,14.90
2016,07,20,06,18,14.90
2016,07,20,06,19,14.90
2016,07,20,06,20,14.90
2016,07,20,06,21,14.90
2016,07,20,06,22,14.90
2016,07,20,06,23,14.90
2016,07,20,06,24,14.90
2016,07,20,06,25,14.90
2016,07,20,06,26,14.90
2016,07,20,06,27,14.90
2016,07,20,06,28,15.00
2016,07,20,06,29,15.00
2016,07,20,06,30,15.00
2016,07,20,06,31,15.00
2016,07,20,06,32,15.00
2016,07,20,06,33,15.00
2016,07,20,06,34,15.10
2016,07,20,06,35,15.10
2016,07,20,06,36,15.10
2016,07,20,06,37,15.10
2016,07,20,06,38,15.10
2016,07,20,06,39,15.10
2016,07,20,06,40,15.10
2016,07,20,06,41,15.10
2016,07,20,06,42,15.10
2016,07,20,06,43,15.20
2016,07,20,06,44,15.20
2016,07,20,06,45,15.20
2016,07,20,06,46,15.20
2016,07,20,06,47,15.20
2016,07,20,06,48,15.20
2016,07,20,06,49,15.20
2016,07,20,06,50,15.20
2016,07,20,06,51,15.30
2016,07,20,06,52,15.30
2016,07,20,06,53,15.30
2016,07,20,06,54,15.30
2016,07,20,06,55,15.30
2016,07,20,06,56,15.30
2016,07,20,06,57,15.30
2016,07,20,06,58,15.40
2016,07,20,06,59,15.40
2016,07,20,07,00,15.40
2016,07,20,07,01,15.40
2016,07,20,07,02,15.40
2016,07,20,07,03,15.40
2016,07,20,07,04,15.40
2016,07,20,07,05,15.40
2016,07,20,07,06,15.40
2016,07,20,07,07,15.40
2016,07,20,07,08,15.40
2016,07,20,07,09,15.50
2016,07,20,07,10,15.50
2016,07,20,07,11,15.50
2016,07,20,07,12,15.50
2016,07,20,07,13,15.50
2016,07,20,07,14,15.50
2016,07,20,07,15,15.60
2016,07,20,07,16,15.60
2016,07,20,07,17,15.60
2016,07,20,07,18,15.60
2016,07,20,07,19,15.60
2016,07,20,07,20,15.70
2016,07,20,07,21,15.70
2016,07,20,07,22,15.70
2016,07,20,07,23,15.70
2016,07,20,07,24,15.70
2016,07,20,07,25,15.70
2016,07,20,07,26,15.80
2016,07,20,07,27,15.80
2016,07,20,07,28,15.80
2016,07,20,07,29,15.80
2016,07,20,07,30,15.80
2016,07,20,07,31,15.80
2016,07,20,07,32,15.80
2016,07,20,07,33,15.80
2016,07,20,07,34,15.80
2016,07,20,07,35,15.80
2016,07,20,07,36,15.80
2016,07,20,07,37,15.90
2016,07,20,07,38,15.90
2016,07,20,07,39,15.90
2016,07,20,07,40,15.90
2016,07,20,07,41,15.90
2016,07,20,07,42,15.90
2016,07,20,07,43,16.00
2016,07,20,07,44,16.00
2016,07,20,07,45,16.00
2016,07,20,07,46,16.10
2016,07,20,07,47,16.10
2016,07,20,07,48,16.10
2016,07,20,07,49,16.10
2016,07,20,07,50,16.10
2016,07,20,07,51,16.10
2016,07,20,07,52,16.20
2016,07,20,07,53,16.20
2016,07,20,07,54,16.20
2016,07,20,07,55,16.20
2016,07,20,07,56,16.20
2016,07,20,07,57,16.30
2016,07,20,07,58,16.30
2016,07,20,07,59,16.30
2016,07,20,08,00,16.30
2016,07,20,08,01,16.40
2016,07,20,08,02,16.40
2016,07,20,08,03,16.40
2016,07,20,08,04,16.40
2016,07,20,08,05,16.50
2016,07,20,08,06,16.50
2016,07,20,08,07,16.60
2016,07,20,08,08,16.60
2016,07,20,08,09,16.60
2016,07,20,08,10,16.60
2016,07,20,08,11,16.70
2016,07,20,08,12,16.70
2016,07,20,08,13,16.70
2016,07,20,08,14,16.80
2016,07,20,08,15,16.80
2016,07,20,08,16,16.80
2016,07,20,08,17,16.80
2016,07,20,08,18,16.90
2016,07,20,08,19,16.90
2016,07,20,08,20,16.90
2016,07,20,08,21,16.90
2016,07,20,08,22,17.00
2016,07,20,08,23,17.00
2016,07,20,08,24,17.00
2016,07,20,08,25,17.00
2016,07,20,08,26,17.00
2016,07,20,08,27,17.00
2016,07,20,08,28,17.00
2016,07,20,08,29,17.00
2016,07,20,08,30,17.00
2016,07,20,08,31,17.00
2016,07,20,08,32,17.00
2016,07,20,08,33,17.00
2016,07,20,08,34,17.00
2016,07,20,08,35,17.00
2016,07,20,08,36,17.00
2016,07,20,08,37,17.00
2016,07,20,08,38,17.00
2016,07,20,08,39,17.00
2016,07,20,08,40,17.00
2016,07,20,08,41,17.00
2016,07,20,08,42,17.00
2016,07,20,08,43,17.10
2016,07,20,08,44,17.10
2016,07,20,08,45,17.10
2016,07,20,08,46,17.10
2016,07,20,08,47,17.10
2016,07,20,08,48,17.10
2016,07,20,08,49,17.10
2016,07,20,08,50,17.20
2016,07,20,08,51,17.20
2016,07,20,08,52,17.20
2016,07,20,08,53,17.20
2016,07,20,08,54,17.30
2016,07,20,08,55,17.30
2016,07,20,08,56,17.30
2016,07,20,08,57,17.40
2016,07,20,08,58,17.40
2016,07,20,08,59,17.50
2016,07,20,09,00,17.50
2016,07,20,09,01,17.50
2016,07,20,09,02,17.60
2016,07,20,09,03,17.60
2016,07,20,09,04,17.60
2016,07,20,09,05,17.70
2016,07,20,09,06,17.70
2016,07,20,09,07,17.80
2016,07,20,09,08,17.80
2016,07,20,09,09,17.80
2016,07,20,09,10,17.90
2016,07,20,09,11,17.90
2016,07,20,09,12,18.00
2016,07,20,09,13,18.00
2016,07,20,09,14,18.10
2016,07,20,09,15,18.10
2016,07,20,09,16,18.20
2016,07,20,09,17,18.20
2016,07,20,09,18,18.30
2016,07,20,09,19,18.30
2016,07,20,09,20,18.40
2016,07,20,09,21,18.40
2016,07,20,09,22,18.50
2016,07,20,09,23,18.60
2016,07,20,09,24,18.60
2016,07,20,09,25,18.70
2016,07,20,09,26,18.70
2016,07,20,09,27,18.70
2016,07,20,09,28,18.80
2016,07,20,09,29,18.80
2016,07,20,09,30,18.80
2016,07,20,09,31,18.80
2016,07,20,09,32,18.80
2016,07,20,09,33,18.80
2016,07,20,09,34,18.90
2016,07,20,09,35,18.90
2016,07,20,09,36,18.90
2016,07,20,09,37,18.90
2016,07,20,09,38,19.00
2016,07,20,09,39,19.10
2016,07,20,09,40,19.10
2016,07,20,09,41,19.10
2016,07,20,09,42,19.20
2016,07,20,09,43,19.20
2016,07,20,09,44,19.30
2016,07,20,09,45,19.30
2016,07,20,09,46,19.30
2016,07,20,09,47,19.40
2016,07,20,09,48,19.50
2016,07,20,09,49,19.60
2016,07,20,09,50,19.70
2016,07,20,09,51,19.80
2016,07,20,09,52,19.80
2016,07,20,09,53,19.90
2016,07,20,09,54,20.00
2016,07,20,09,55,20.00
2016,07,20,09,56,20.10
2016,07,20,09,57,20.10
2016,07,20,09,58,20.20
2016,07,20,09,59,20.20
2016,07,20,10,00,20.20
2016,07,20,10,01,20.30
2016,07,20,10,02,20.30
2016,07,20,10,03,20.30
2016,07,20,10,04,20.40
2016,07,20,10,05,20.40
2016,07,20,10,06,20.50
2016,07,20,10,07,20.60
2016,07,20,10,08,20.70
2016,07,20,10,09,20.80
2016,07,20,10,10,20.90
2016,07,20,10,11,21.00
2016,07,20,10,12,21.00
2016,07,20,10,13,21.10
2016,07,20,10,14,21.10
2016,07,20,10,15,21.10
2016,07,20,10,16,21.10
2016,07,20,10,17,21.00
2016,07,20,10,18,21.10
2016,07,20,10,19,21.10
2016,07,20,10,20,21.10
2016,07,20,10,21,21.10
2016,07,20,10,22,21.10
2016,07,20,10,23,21.10
2016,07,20,10,24,21.10
2016,07,20,10,25,21.20
2016,07,20,10,26,21.20
2016,07,20,10,27,21.20
2016,07,20,10,28,21.20
2016,07,20,10,29,21.20
2016,07,20,10,30,21.30
2016,07,20,10,31,21.30
2016,07,20,10,32,21.30
2016,07,20,10,33,21.40
2016,07,20,10,34,21.40
2016,07,20,10,35,21.40
2016,07,20,10,36,21.30
2016,07,20,10,37,21.30
2016,07,20,10,38,21.30
2016,07,20,10,39,21.40
2016,07,20,10,40,21.50
2016,07,20,10,41,21.60
2016,07,20,10,42,21.70
2016,07,20,10,43,21.80
2016,07,20,10,44,21.80
2016,07,20,10,45,21.70
2016,07,20,10,46,21.50
2016,07,20,10,47,21.40
2016,07,20,10,48,21.40
2016,07,20,10,49,21.40
2016,07,20,10,50,21.40
2016,07,20,10,51,21.50
2016,07,20,10,52,21.50
2016,07,20,10,53,21.60
2016,07,20,10,54,21.70
2016,07,20,10,55,21.80
2016,07,20,10,56,21.90
2016,07,20,10,57,21.90
2016,07,20,10,58,22.00
2016,07,20,10,59,22.10
2016,07,20,11,00,22.10
2016,07,20,11,01,22.20
2016,07,20,11,02,22.20
2016,07,20,11,03,22.20
2016,07,20,11,04,22.20
2016,07,20,11,05,22.20
2016,07,20,11,06,22.30
2016,07,20,11,07,22.20
2016,07,20,11,08,22.20
2016,07,20,11,09,22.20
2016,07,20,11,10,22.20
2016,07,20,11,11,22.10
2016,07,20,11,12,22.10
2016,07,20,11,13,22.10
2016,07,20,11,14,22.10
2016,07,20,11,15,22.10
2016,07,20,11,16,22.10
2016,07,20,11,17,22.10
2016,07,20,11,18,22.10
2016,07,20,11,19,22.10
2016,07,20,11,20,22.10
2016,07,20,11,21,22.00
2016,07,20,11,22,22.00
2016,07,20,11,23,21.90
2016,07,20,11,24,21.90
2016,07,20,11,25,21.80
2016,07,20,11,26,21.80
2016,07,20,11,27,21.80
2016,07,20,11,28,21.70
2016,07,20,11,29,21.70
2016,07,20,11,30,21.80
2016,07,20,11,31,21.90
2016,07,20,11,32,22.00
2016,07,20,11,33,22.00
2016,07,20,11,34,22.10
2016,07,20,11,35,22.10
2016,07,20,11,36,22.10
2016,07,20,11,37,22.20
2016,07,20,11,38,22.20
2016,07,20,11,39,22.20
2016,07,20,11,40,22.20
2016,07,20,11,41,22.30
2016,07,20,11,42,22.40
2016,07,20,11,43,22.50
2016,07,20,11,44,22.50
2016,07,20,11,45,22.40
2016,07,20,11,46,22.40
2016,07,20,11,47,22.40
2016,07,20,11,48,22.40
2016,07,20,11,49,22.40
2016,07,20,11,50,22.40
2016,07,20,11,51,22.40
2016,07,20,11,52,22.40
2016,07,20,11,53,22.50
2016,07,20,11,54,22.50
2016,07,20,11,55,22.50
2016,07,20,11,56,22.60
2016,07,20,11,57,22.60
2016,07,20,11,58,22.60
2016,07,20,11,59,22.60
2016,07,20,12,00,22.70
2016,07,20,12,01,22.70
2016,07,20,12,02,22.70
2016,07,20,12,03,22.80
2016,07,20,12,04,22.80
2016,07,20,12,05,22.90
2016,07,20,12,06,23.00
2016,07,20,12,07,23.10
2016,07,20,12,08,23.20
2016,07,20,12,09,23.30
2016,07,20,12,10,23.40
2016,07,20,12,11,23.50
2016,07,20,12,12,23.50
2016,07,20,12,13,23.60
2016,07,20,12,14,23.70
2016,07,20,12,15,23.70
2016,07,20,12,16,23.70
2016,07,20,12,17,23.70
2016,07,20,12,18,23.70
2016,07,20,12,19,23.70
2016,07,20,12,20,23.60
2016,07,20,12,21,23.60
2016,07,20,12,22,23.60
2016,07,20,12,23,23.60
2016,07,20,12,24,23.60
2016,07,20,12,25,23.60
2016,07,20,12,26,23.60
2016,07,20,12,27,23.50
2016,07,20,12,28,23.50
2016,07,20,12,29,23.50
2016,07,20,12,30,23.50
2016,07,20,12,31,23.50
2016,07,20,12,32,23.40
2016,07,20,12,33,23.40
2016,07,20,12,34,23.40
2016,07,20,12,35,23.40
2016,07,20,12,36,23.30
2016,07,20,12,37,23.30
2016,07,20,12,38,23.30
2016,07,20,12,39,23.40
2016,07,20,12,40,23.40
2016,07,20,12,41,23.40
2016,07,20,12,42,23.50
2016,07,20,12,43,23.60
2016,07,20,12,44,23.70
2016,07,20,12,45,23.70
2016,07,20,12,46,23.80
2016,07,20,12,47,23.80
2016,07,20,12,48,23.90
2016,07,20,12,49,24.00
2016,07,20,12,50,24.00
2016,07,20,12,51,24.10
2016,07,20,12,52,24.10
2016,07,20,12,53,24.00
2016,07,20,12,54,23.90
2016,07,20,12,55,23.90
2016,07,20,12,56,23.90
2016,07,20,12,57,23.90
2016,07,20,12,58,23.80
2016,07,20,12,59,23.80
2016,07,20,13,00,23.80
2016,07,20,13,01,23.90
2016,07,20,13,02,23.90
2016,07,20,13,03,23.90
2016,07,20,13,04,23.90
2016,07,20,13,05,24.00
2016,07,20,13,06,24.10
2016,07,20,13,07,24.10
2016,07,20,13,08,24.10
2016,07,20,13,09,24.10
2016,07,20,13,10,24.10
2016,07,20,13,11,24.10
2016,07,20,13,12,24.00
2016,07,20,13,13,24.00
2016,07,20,13,14,24.00
2016,07,20,13,15,23.90
2016,07,20,13,16,23.90
2016,07,20,13,17,23.90
2016,07,20,13,18,23.90
2016,07,20,13,19,24.00
2016,07,20,13,20,24.00
2016,07,20,13,21,24.10
2016,07,20,13,22,24.10
2016,07,20,13,23,24.10
2016,07,20,13,24,24.10
2016,07,20,13,25,24.10
2016,07,20,13,26,24.00
2016,07,20,13,27,24.00
2016,07,20,13,28,24.00
2016,07,20,13,29,24.00
2016,07,20,13,30,24.10
2016,07,20,13,31,24.20
2016,07,20,13,32,24.30
2016,07,20,13,33,24.30
2016,07,20,13,34,24.30
2016,07,20,13,35,24.30
2016,07,20,13,36,24.40
2016,07,20,13,37,24.40
2016,07,20,13,38,24.40
2016,07,20,13,39,24.50
2016,07,20,13,40,24.60
2016,07,20,13,41,24.60
2016,07,20,13,42,24.60
2016,07,20,13,43,24.70
2016,07,20,13,44,24.70
2016,07,20,13,45,24.70
2016,07,20,13,46,24.70
2016,07,20,13,47,24.60
2016,07,20,13,48,24.60
2016,07,20,13,49,24.60
2016,07,20,13,50,24.70
2016,07,20,13,51,24.60
2016,07,20,13,52,24.60
2016,07,20,13,53,24.50
2016,07,20,13,54,24.50
2016,07,20,13,55,24.50
2016,07,20,13,56,24.50
2016,07,20,13,57,24.40
2016,07,20,13,58,24.40
2016,07,20,13,59,24.40
2016,07,20,14,00,24.30
2016,07,20,14,01,24.30
2016,07,20,14,02,24.30
2016,07,20,14,03,24.30
2016,07,20,14,04,24.40
2016,07,20,14,05,24.40
2016,07,20,14,06,24.40
2016,07,20,14,07,24.30
2016,07,20,14,08,24.30
2016,07,20,14,09,24.20
2016,07,20,14,10,24.10
2016,07,20,14,11,24.10
2016,07,20,14,12,24.20
2016,07,20,14,13,24.30
2016,07,20,14,14,24.30
2016,07,20,14,15,24.40
2016,07,20,14,16,24.40
2016,07,20,14,17,24.30
2016,07,20,14,18,24.20
2016,07,20,14,19,24.10
2016,07,20,14,20,24.00
2016,07,20,14,21,23.90
2016,07,20,14,22,23.80
2016,07,20,14,23,23.70
2016,07,20,14,24,23.60
2016,07,20,14,25,23.60
2016,07,20,14,26,23.60
2016,07,20,14,27,23.60
2016,07,20,14,28,23.60
2016,07,20,14,29,23.60
2016,07,20,14,30,23.60
2016,07,20,14,31,23.60
2016,07,20,14,32,23.60
2016,07,20,14,33,23.70
2016,07,20,14,34,23.70
2016,07,20,14,35,23.80
2016,07,20,14,36,23.80
2016,07,20,14,37,23.80
2016,07,20,14,38,23.80
2016,07,20,14,39,23.80
2016,07,20,14,40,23.90
2016,07,20,14,41,23.80
2016,07,20,14,42,23.80
2016,07,20,14,43,23.80
2016,07,20,14,44,23.80
2016,07,20,14,45,23.80
2016,07,20,14,46,23.80
2016,07,20,14,47,23.80
2016,07,20,14,48,23.80
2016,07,20,14,49,23.70
2016,07,20,14,50,23.70
2016,07,20,14,51,23.70
2016,07,20,14,52,23.70
2016,07,20,14,53,23.80
2016,07,20,14,54,23.80
2016,07,20,14,55,23.70
2016,07,20,14,56,23.70
2016,07,20,14,57,23.60
2016,07,20,14,58,23.60
2016,07,20,14,59,23.60
2016,07,20,15,00,23.60
2016,07,20,15,01,23.70
2016,07,20,15,02,23.80
2016,07,20,15,03,23.90
2016,07,20,15,04,24.00
2016,07,20,15,05,24.10
2016,07,20,15,06,24.20
2016,07,20,15,07,24.30
2016,07,20,15,08,24.50
2016,07,20,15,09,24.60
2016,07,20,15,10,24.60
2016,07,20,15,11,24.70
2016,07,20,15,12,24.70
2016,07,20,15,13,24.80
2016,07,20,15,14,24.70
2016,07,20,15,15,24.70
2016,07,20,15,16,24.60
2016,07,20,15,17,24.50
2016,07,20,15,18,24.40
2016,07,20,15,19,24.30
2016,07,20,15,20,24.30
2016,07,20,15,21,24.20
2016,07,20,15,22,24.20
2016,07,20,15,23,24.20
2016,07,20,15,24,24.20
2016,07,20,15,25,24.30
2016,07,20,15,26,24.30
2016,07,20,15,27,24.40
2016,07,20,15,28,24.60
2016,07,20,15,29,24.60
2016,07,20,15,30,24.70
2016,07,20,15,31,24.70
2016,07,20,15,32,24.80
2016,07,20,15,33,24.80
2016,07,20,15,34,24.80
2016,07,20,15,35,24.90
2016,07,20,15,36,24.90
2016,07,20,15,37,24.90
2016,07,20,15,38,24.90
2016,07,20,15,39,24.90
2016,07,20,15,40,24.90
2016,07,20,15,41,24.90
2016,07,20,15,42,25.00
2016,07,20,15,43,25.00
2016,07,20,15,44,25.00
2016,07,20,15,45,25.00
2016,07,20,15,46,25.00
2016,07,20,15,47,25.00
2016,07,20,15,48,25.00
2016,07,20,15,49,24.90
2016,07,20,15,50,24.80
2016,07,20,15,51,24.80
2016,07,20,15,52,24.80
2016,07,20,15,53,24.80
2016,07,20,15,54,24.80
2016,07,20,15,55,24.80
2016,07,20,15,56,24.80
2016,07,20,15,57,24.70
2016,07,20,15,58,24.70
2016,07,20,15,59,24.70
2016,07,20,16,00,24.80
2016,07,20,16,01,24.90
2016,07,20,16,02,24.90
2016,07,20,16,03,24.90
2016,07,20,16,04,24.90
2016,07,20,16,05,24.90
2016,07,20,16,06,24.90
2016,07,20,16,07,24.90
2016,07,20,16,08,24.90
2016,07,20,16,09,25.00
2016,07,20,16,10,25.00
2016,07,20,16,11,25.10
2016,07,20,16,12,25.10
2016,07,20,16,13,25.10
2016,07,20,16,14,25.10
2016,07,20,16,15,25.00
2016,07,20,16,16,24.90
2016,07,20,16,17,24.80
2016,07,20,16,18,24.70
2016,07,20,16,19,24.70
2016,07,20,16,20,24.70
2016,07,20,16,21,24.70
2016,07,20,16,22,24.70
2016,07,20,16,23,24.70
2016,07,20,16,24,24.70
2016,07,20,16,25,24.60
2016,07,20,16,26,24.60
2016,07,20,16,27,24.60
2016,07,20,16,28,24.60
2016,07,20,16,29,24.60
2016,07,20,16,30,24.60
2016,07,20,16,31,24.70
2016,07,20,16,32,24.80
2016,07,20,16,33,24.80
2016,07,20,16,34,24.90
2016,07,20,16,35,24.90
2016,07,20,16,36,25.00
2016,07,20,16,37,25.00
2016,07,20,16,38,25.10
2016,07,20,16,39,25.10
2016,07,20,16,40,25.10
2016,07,20,16,41,25.00
2016,07,20,16,42,24.90
2016,07,20,16,43,24.70
2016,07,20,16,44,24.50
2016,07,20,16,45,24.30
2016,07,20,16,46,24.10
2016,07,20,16,47,24.10
2016,07,20,16,48,24.10
2016,07,20,16,49,24.10
2016,07,20,16,50,24.10
2016,07,20,16,51,24.20
2016,07,20,16,52,24.30
2016,07,20,16,53,24.30
2016,07,20,16,54,24.40
2016,07,20,16,55,24.50
2016,07,20,16,56,24.60
2016,07,20,16,57,24.60
2016,07,20,16,58,24.60
2016,07,20,16,59,24.60
2016,07,20,17,00,24.50
2016,07,20,17,01,24.50
2016,07,20,17,02,24.40
2016,07,20,17,03,24.40
2016,07,20,17,04,24.30
2016,07,20,17,05,24.20
2016,07,20,17,06,24.10
2016,07,20,17,07,24.00
2016,07,20,17,08,23.90
2016,07,20,17,09,23.80
2016,07,20,17,10,23.80
2016,07,20,17,11,23.90
2016,07,20,17,12,23.90
2016,07,20,17,13,23.90
2016,07,20,17,14,23.90
2016,07,20,17,15,23.80
2016,07,20,17,16,23.80
2016,07,20,17,17,23.80
2016,07,20,17,18,23.80
2016,07,20,17,19,23.80